Home   Weather   Koror   Past weeks

Flag for Palau Past Weather in Koror, Palau — Yesterday and Last 2 Weeks

Now
88 °F

Broken clouds.


Feels Like: 100 °F
Forecast: 78 / 87 °F
Wind: 9 mph from East

Location: Koror / Palau Island

Current Time: May 27, 2017 at 1:25:58 pm

Latest Report: May 27, 2017 at 12:50 pm


Visibility: 15 mi

Pressure: 29.79 "Hg

Humidity: 70%

Dew Point: 77 °F

Location of KororLocation

Past Weather in Koror — Graph

°F

Koror Temperature Yesterday

Maximum temperature yesterday: 88 °F (at 11:50 am)
Minimum temperature yesterday: 77 °F (at 1:00 am)
Average temperature yesterday: 82 °F

High & Low Weather Summary for the Past Weeks

 TemperatureHumidityPressure
High88 °F (May 12, 11:55 am)100% (May 13, 10:50 am)29.87 "Hg (May 13, 10:50 am)
Low75 °F (May 13, 9:50 am)66% (May 18, 2:50 pm)29.69 "Hg (May 20, 3:50 pm)
Average81 °F86%29.79 "Hg
* Reported May 12 11:55 am — May 27 11:50 am, Koror. Weather by CustomWeather, © 2017

Note: Actual official high and low records may vary slightly from our data, if they occured in-between our weather recording intervals... More about our weather records

Advertising

Koror Weather History for the Previous 24 Hours

Scroll right to see more
 ConditionsComfort  
Time TempWeatherWind HumidityBarometerVisibility
11:50 am
Sat, May 27
88 °FBroken clouds.12 mph70%29.79 "Hg15 mi
10:54 am88 °FBroken clouds.9 mph70%29.82 "Hg15 mi
9:50 am86 °FBroken clouds.8 mph75%29.82 "Hg15 mi
8:50 am82 °FSprinkles. Broken clouds.7 mph84%29.82 "Hg15 mi
7:50 am82 °FBroken clouds.No wind84%29.82 "Hg15 mi
6:50 am81 °FBroken clouds.No wind89%29.80 "Hg15 mi
5:54 am79 °FBroken clouds.No wind94%29.80 "Hg15 mi
4:50 am79 °FPassing clouds.No wind94%29.79 "Hg14 mi
3:50 am79 °FPassing clouds.No wind94%29.80 "Hg14 mi
2:50 am77 °FPartly cloudy.No wind94%29.79 "Hg14 mi
1:50 am79 °FPartly cloudy.No wind94%29.80 "Hg14 mi
11:50 pm
Fri, May 26
79 °FSprinkles. Overcast.No wind94%29.84 "Hg13 mi
10:50 pm79 °FPartly cloudy.No wind94%29.84 "Hg15 mi
9:52 pm79 °FPassing clouds.No wind94%29.84 "Hg15 mi
8:54 pm79 °FPassing clouds.No wind94%29.83 "Hg15 mi
7:54 pm81 °FPassing clouds.No wind89%29.81 "Hg15 mi
6:50 pm82 °FPartly cloudy.No wind84%29.79 "Hg15 mi
5:50 pm84 °FBroken clouds.6 mph79%29.78 "Hg15 mi
4:50 pm86 °FBroken clouds.7 mph75%29.77 "Hg15 mi
3:50 pm86 °FBroken clouds.8 mph75%29.76 "Hg15 mi
2:50 pm88 °FBroken clouds.8 mph70%29.77 "Hg15 mi
1:50 pm88 °FBroken clouds.8 mph70%29.79 "Hg15 mi
Weather by CustomWeather, © 2017

See weather overviewHow to use our weather pages